Flag Weather past 2 weeks in Rapid City, South Dakota, U.S.A.

Now
20 °F

Low clouds.


Feels Like: 10 °F
Forecast: 22 / 44 °F
Wind: 9 mph from Southeast

Location: Ellsworth Air Force Base

Current Time: Nov 27, 2014 at 5:24:07 AM

Latest Report: Nov 27, 2014 at 4:58 AM


Visibility: 10 mi

Pressure: 30.27 "Hg

Humidity: 93%

Dew point: 19 °F

Location of Rapid CityLocation

Historic Weather in Rapid City — Graph

°F

Rapid City temperature yesterday

Maximum temperature yesterday: 32 °F (at 3:03 PM)
Minimum temperature yesterday: 22 °F (at 10:58 PM)
Average temperature yesterday: 27 °F

Past Weeks' High & Low Weather Summary

 TemperatureHumidityPressure
High56 °F (Nov 22, 12:58 PM)94% (Nov 20, 8:58 AM)30.81 "Hg (Nov 20, 8:58 AM)
Low-9 °F (Nov 13, 3:58 AM)33% (Nov 21, 12:58 PM)29.41 "Hg (Nov 22, 7:59 PM)
Average21 °F72%30.14 "Hg
* Reported Nov 12 3:58 AM — Nov 27 3:58 AM, Rapid City, Weather by CustomWeather, © 2014

Note: Actual official high and low records may vary slightly from our data, if they occured in-between our weather recording intervals... More about our weather records

Advertising

Rapid City weather history for previous 24 hours

 ConditionsComfort  
Time TempWeatherWind HumidityBarometerVisibility
3:58 AM
Nov 27
21 °FLow clouds.8 mph93%30.29 "Hg10 mi
2:58 AM20 °FLow clouds.6 mph93%30.32 "Hg10 mi
1:58 AM20 °FLow clouds.6 mph93%30.35 "Hg10 mi
12:58 AM22 °FLow clouds.7 mph94%30.36 "Hg10 mi
11:58 PM
Nov 26
23 °FLow clouds.8 mph94%30.37 "Hg10 mi
10:58 PM22 °FLow clouds.7 mph94%30.38 "Hg10 mi
9:58 PM23 °FMostly cloudy.8 mph94%30.40 "Hg10 mi
9:03 PM25 °FMostly cloudy.9 mph93%30.26 "Hg10 mi
8:00 PM28 °FOvercast.3 mph93%30.27 "Hg10 mi
7:58 PM28 °FLight snow. Overcast.3 mph93%30.40 "Hg10 mi
7:03 PM28 °FOvercast.No wind93%30.27 "Hg10 mi
6:58 PM28 °FOvercast.No wind93%30.40 "Hg10 mi
5:58 PM29 °FOvercast.5 mph89%30.40 "Hg10 mi
4:58 PM30 °FLight snow. Overcast.1 mph83%30.38 "Hg10 mi
4:03 PM32 °FOvercast.No wind75%30.26 "Hg10 mi
3:58 PM31 °FOvercast.No wind76%30.37 "Hg10 mi
3:03 PM32 °FOvercast.No wind75%30.23 "Hg10 mi
1:58 PM31 °FIce fog.No wind75%30.34 "Hg9 mi
12:58 PM30 °FIce fog.2 mph76%30.33 "Hg9 mi
11:58 AM29 °FIce fog.8 mph80%30.33 "Hg9 mi
11:04 AM28 °FIce fog.9 mph80%30.23 "Hg10 mi
10:58 AM28 °FIce fog.9 mph80%30.34 "Hg4 mi
9:58 AM27 °FLight snow. Mostly cloudy.7 mph86%30.34 "Hg3 mi
8:58 AM25 °FIce fog.5 mph89%30.35 "Hg4 mi
7:59 AM25 °FOvercast.5 mph86%30.21 "Hg5 mi
7:58 AM25 °FLight snow. Overcast.5 mph88%30.33 "Hg5 mi
6:59 AM25 °FLight snow. Overcast.7 mph86%30.20 "Hg3 mi
6:58 AM25 °FIce fog.6 mph82%30.31 "Hg6 mi
5:58 AM25 °FPassing clouds.8 mph81%30.28 "Hg10 mi
Weather by CustomWeather, © 2014

See weather overviewHow to use our weather pages